,,,PA_Meas_PMT16A,,PR_Meas_QMR101_102,,RH_Meas_QMH101,,SR_Meas_QMS101,,TA_Meas_QMH101,,GenWind,,GenWind,
date,time,status,PA,status,PR,status,RH,status,SR,status,TA,status,DirAvg,status,SpdAvg,
2014-05-17, 00:00:04,VALID,1009.35,VALID,0,INVALID,110.772,VALID,0,VALID,24.3974,VALID,20,VALID,0,
2014-05-17, 00:01:04,VALID,1009.3,VALID,0,INVALID,110.772,VALID,0,VALID,24.3974,VALID,20,VALID,0,
2014-05-17, 00:02:04,VALID,1009.31,VALID,0,INVALID,110.81,VALID,0,VALID,24.3779,VALID,20,VALID,0,
2014-05-17, 00:03:04,VALID,1009.3,VALID,0,INVALID,110.779,VALID,0,VALID,24.3584,VALID,20,VALID,0,
2014-05-17, 00:04:04,VALID,1009.3,VALID,0,INVALID,110.779,VALID,0.112112,VALID,24.3547,VALID,20,VALID,0,
2014-05-17, 00:05:04,VALID,1009.31,VALID,0,INVALID,110.795,VALID,0.112112,VALID,24.3761,VALID,20,VALID,0,
2014-05-17, 00:06:04,VALID,1009.31,VALID,0,INVALID,110.764,VALID,0.112112,VALID,24.3547,VALID,20,VALID,0,
2014-05-17, 00:07:04,VALID,1009.29,VALID,0,INVALID,110.741,VALID,0,VALID,24.3761,VALID,20,VALID,0,
2014-05-17, 00:08:04,VALID,1009.28,VALID,0,INVALID,110.779,VALID,0.112112,VALID,24.3956,VALID,20,VALID,0,
2014-05-17, 00:09:04,VALID,1009.26,VALID,0,INVALID,110.711,VALID,0.112112,VALID,24.3956,VALID,20,VALID,0,
2014-05-17, 00:10:04,VALID,1009.22,VALID,0,INVALID,110.772,VALID,0.112112,VALID,24.3761,VALID,20,VALID,0,
2014-05-17, 00:11:04,VALID,1009.21,VALID,0,INVALID,110.749,VALID,0,VALID,24.3956,VALID,20,VALID,0,
2014-05-17, 00:12:04,VALID,1009.19,VALID,0,INVALID,110.764,VALID,0,VALID,24.3956,VALID,20,VALID,0,
2014-05-17, 00:13:04,VALID,1009.15,VALID,0,INVALID,110.756,VALID,0,VALID,24.3956,VALID,20,VALID,0,
2014-05-17, 00:14:04,VALID,1009.11,VALID,0,INVALID,110.764,VALID,0,VALID,24.3956,VALID,20,VALID,0,
2014-05-17, 00:15:04,VALID,1009.06,VALID,0,INVALID,110.749,VALID,0.112112,VALID,24.3937,VALID,20,VALID,0,
2014-05-17, 00:16:04,VALID,1009.05,VALID,0,INVALID,110.787,VALID,0.112112,VALID,24.3956,VALID,20,VALID,0,
2014-05-17, 00:17:04,VALID,1009.03,VALID,0,INVALID,110.756,VALID,0,VALID,24.415,VALID,20,VALID,0,
2014-05-17, 00:18:04,VALID,1009.02,VALID,0,INVALID,110.764,VALID,0,VALID,24.4345,VALID,20,VALID,0,
2014-05-17, 00:19:04,VALID,1008.99,VALID,0,INVALID,110.741,VALID,0,VALID,24.454,VALID,20,VALID,0,
2014-05-17, 00:20:04,VALID,1008.98,VALID,0,INVALID,110.756,VALID,0,VALID,24.454,VALID,20,VALID,0,
2014-05-17, 00:21:04,VALID,1008.96,VALID,0,INVALID,110.749,VALID,0,VALID,24.454,VALID,20,VALID,0,
2014-05-17, 00:22:04,VALID,1008.93,VALID,0,INVALID,110.749,VALID,0.112112,VALID,24.4522,VALID,20,VALID,0,
2014-05-17, 00:23:04,VALID,1008.92,VALID,0,INVALID,110.772,VALID,0.112112,VALID,24.4522,VALID,20,VALID,0,
2014-05-17, 00:24:04,VALID,1008.9,VALID,0,INVALID,110.749,VALID,0,VALID,24.4717,VALID,20,VALID,0,
2014-05-17, 00:25:04,VALID,1008.9,VALID,0,INVALID,110.787,VALID,0.112112,VALID,24.4522,VALID,20,VALID,0,
2014-05-17, 00:26:04,VALID,1008.91,VALID,0,INVALID,110.787,VALID,0,VALID,24.493,VALID,20,VALID,0,
2014-05-17, 00:27:04,VALID,1008.93,VALID,0,INVALID,110.772,VALID,0.112112,VALID,24.493,VALID,20,VALID,0,
2014-05-17, 00:28:04,VALID,1008.94,VALID,0,INVALID,110.802,VALID,0.112112,VALID,24.493,VALID,20,VALID,0,
2014-05-17, 00:29:04,VALID,1008.98,VALID,0,INVALID,110.802,VALID,0.112112,VALID,24.493,VALID,20,VALID,0,
2014-05-17, 00:30:04,VALID,1008.99,VALID,0,INVALID,110.756,VALID,0,VALID,24.493,VALID,20,VALID,0,
2014-05-17, 00:31:04,VALID,1008.99,VALID,0,INVALID,110.795,VALID,0.112112,VALID,24.5125,VALID,20,VALID,0,
2014-05-17, 00:32:04,VALID,1008.98,VALID,0,INVALID,110.795,VALID,0.112112,VALID,24.4911,VALID,20,VALID,0,
2014-05-17, 00:33:04,VALID,1008.99,VALID,0,INVALID,110.787,VALID,0.112112,VALID,24.4911,VALID,20,VALID,0,
2014-05-17, 00:34:04,VALID,1008.98,VALID,0,INVALID,110.802,VALID,0,VALID,24.5144,VALID,20,VALID,0,
2014-05-17, 00:35:04,VALID,1008.99,VALID,0,INVALID,110.779,VALID,0,VALID,24.4735,VALID,20,VALID,0,
2014-05-17, 00:36:04,VALID,1009.04,VALID,0,INVALID,110.749,VALID,0,VALID,24.4949,VALID,20,VALID,0,
2014-05-17, 00:37:04,VALID,1009.05,VALID,0,INVALID,110.779,VALID,0,VALID,24.4949,VALID,20,VALID,0,
2014-05-17, 00:38:05,VALID,1009.02,VALID,0,INVALID,110.787,VALID,0,VALID,24.4754,VALID,20,VALID,0,
2014-05-17, 00:39:05,VALID,1009.09,VALID,0,INVALID,110.795,VALID,0,VALID,24.4345,VALID,20,VALID,0,
2014-05-17, 00:40:05,VALID,1009.08,VALID,0,INVALID,110.772,VALID,0,VALID,24.4345,VALID,20,VALID,0,
2014-05-17, 00:41:05,VALID,1009.08,VALID,0,INVALID,110.756,VALID,0,VALID,24.4345,VALID,20,VALID,0,
2014-05-17, 00:42:05,VALID,1009.1,VALID,0,INVALID,110.756,VALID,0,VALID,24.4559,VALID,20,VALID,0,
2014-05-17, 00:43:05,VALID,1009.1,VALID,0,INVALID,110.756,VALID,0,VALID,24.415,VALID,20,VALID,0,
2014-05-17, 00:44:05,VALID,1009.09,VALID,0,INVALID,110.764,VALID,0,VALID,24.4364,VALID,20,VALID,0,
2014-05-17, 00:45:05,VALID,1009.09,VALID,0,INVALID,110.764,VALID,0,VALID,24.415,VALID,20,VALID,0,
2014-05-17, 00:46:05,VALID,1009.09,VALID,0,INVALID,110.718,VALID,0,VALID,24.415,VALID,20,VALID,0,
2014-05-17, 00:47:05,VALID,1009.07,VALID,0,INVALID,110.734,VALID,0,VALID,24.415,VALID,20,VALID,0,
2014-05-17, 00:48:05,VALID,1009.08,VALID,0,INVALID,110.695,VALID,0,VALID,24.415,VALID,20,VALID,0,
2014-05-17, 00:49:05,VALID,1009.08,VALID,0,INVALID,110.711,VALID,0,VALID,24.415,VALID,20,VALID,0,
2014-05-17, 00:50:05,VALID,1009.07,VALID,0,INVALID,110.68,VALID,0,VALID,24.4364,VALID,20,VALID,0,
2014-05-17, 00:51:05,VALID,1009.07,VALID,0,INVALID,110.764,VALID,0,VALID,24.3956,VALID,20,VALID,0,
2014-05-17, 00:52:05,VALID,1009.05,VALID,0,INVALID,110.772,VALID,0,VALID,24.3566,VALID,20,VALID,0,
2014-05-17, 00:53:05,VALID,1009.05,VALID,0,INVALID,110.802,VALID,0,VALID,24.3779,VALID,20,VALID,0,
2014-05-17, 00:54:05,VALID,1009.03,VALID,0,INVALID,110.756,VALID,0,VALID,24.3371,VALID,20,VALID,0,
2014-05-17, 00:55:05,VALID,1009.02,VALID,0,INVALID,110.756,VALID,0,VALID,24.3389,VALID,20,VALID,0,
2014-05-17, 00:56:05,VALID,1009,VALID,0,INVALID,110.711,VALID,0,VALID,24.3389,VALID,20,VALID,0,
2014-05-17, 00:57:05,VALID,1009.03,VALID,0,INVALID,110.711,VALID,0,VALID,24.3176,VALID,20,VALID,0,
2014-05-17, 00:58:05,VALID,1009.02,VALID,0,INVALID,110.703,VALID,0,VALID,24.2981,VALID,20,VALID,0,
2014-05-17, 00:59:05,VALID,1009.04,VALID,0,INVALID,110.665,VALID,0,VALID,24.2981,VALID,20,VALID,0,
2014-05-17, 01:00:05,VALID,1009.02,VALID,0,INVALID,110.703,VALID,0,VALID,24.3,VALID,20,VALID,0,
2014-05-17, 01:01:05,VALID,1009.03,VALID,0,INVALID,110.68,VALID,0,VALID,24.2786,VALID,20,VALID,0,
2014-05-17, 01:02:05,VALID,1009.05,VALID,0,INVALID,110.673,VALID,0,VALID,24.2786,VALID,20,VALID,0,
2014-05-17, 01:03:05,VALID,1009.06,VALID,0,INVALID,110.634,VALID,0,VALID,24.2786,VALID,20,VALID,0,
2014-05-17, 01:04:05,VALID,1009.08,VALID,0,INVALID,110.627,VALID,0,VALID,24.2786,VALID,20,VALID,0,
2014-05-17, 01:05:05,VALID,1009.08,VALID,0,INVALID,110.642,VALID,0.112112,VALID,24.2786,VALID,20,VALID,0,
2014-05-17, 01:06:05,VALID,1009.08,VALID,0,INVALID,110.573,VALID,0.112112,VALID,24.2591,VALID,20,VALID,0,
2014-05-17, 01:07:05,VALID,1009.06,VALID,0,INVALID,110.673,VALID,0.112112,VALID,24.2378,VALID,20,VALID,0,
2014-05-17, 01:08:05,VALID,1009.03,VALID,0,INVALID,110.65,VALID,0.112112,VALID,24.2183,VALID,20,VALID,0,
2014-05-17, 01:09:05,VALID,1009.06,VALID,0,INVALID,110.627,VALID,0,VALID,24.2202,VALID,20,VALID,0,
2014-05-17, 01:10:05,VALID,1009.03,VALID,0,INVALID,110.627,VALID,0.112112,VALID,24.1599,VALID,20,VALID,0,
2014-05-17, 01:11:05,VALID,1009.05,VALID,0,INVALID,110.581,VALID,0.112112,VALID,24.1599,VALID,20,VALID,0,
2014-05-17, 01:12:05,VALID,1009.04,VALID,0,INVALID,110.566,VALID,0.112112,VALID,24.1599,VALID,20,VALID,0,
2014-05-17, 01:13:05,VALID,1009.02,VALID,0,INVALID,110.528,VALID,0.112112,VALID,24.1599,VALID,20,VALID,0,
2014-05-17, 01:14:05,VALID,1009.02,VALID,0,INVALID,110.497,VALID,0.112112,VALID,24.1793,VALID,20,VALID,0,
2014-05-17, 01:15:05,VALID,1009,VALID,0,INVALID,110.49,VALID,0.112112,VALID,24.1599,VALID,20,VALID,0,
2014-05-17, 01:16:05,VALID,1008.97,VALID,0,INVALID,110.459,VALID,0.112112,VALID,24.1793,VALID,20,VALID,0,
2014-05-17, 01:17:05,VALID,1008.98,VALID,0,INVALID,110.459,VALID,0,VALID,24.1812,VALID,20,VALID,0,
2014-05-17, 01:18:05,VALID,1008.94,VALID,0,INVALID,110.436,VALID,0.112112,VALID,24.1617,VALID,20,VALID,0,
2014-05-17, 01:19:05,VALID,1008.9,VALID,0,INVALID,110.429,VALID,0.112112,VALID,24.1617,VALID,20,VALID,0,
2014-05-17, 01:20:05,VALID,1008.87,VALID,0,INVALID,110.429,VALID,0.112112,VALID,24.1404,VALID,20,VALID,0,
2014-05-17, 01:21:05,VALID,1008.82,VALID,0,INVALID,110.421,VALID,0.112112,VALID,24.1209,VALID,20,VALID,0,
2014-05-17, 01:22:05,VALID,1008.81,VALID,0,INVALID,110.406,VALID,0,VALID,24.1422,VALID,20,VALID,0,
2014-05-17, 01:23:05,VALID,1008.8,VALID,0,INVALID,110.39,VALID,0,VALID,24.1209,VALID,20,VALID,0,
2014-05-17, 01:24:05,VALID,1008.78,VALID,0,INVALID,110.398,VALID,0,VALID,24.1227,VALID,20,VALID,0,
2014-05-17, 01:25:05,VALID,1008.75,VALID,0,INVALID,110.36,VALID,0.112112,VALID,24.1014,VALID,20,VALID,0,
2014-05-17, 01:26:05,VALID,1008.74,VALID,0,INVALID,110.368,VALID,0.112112,VALID,24.1032,VALID,20,VALID,0,
2014-05-17, 01:27:05,VALID,1008.69,VALID,0,INVALID,110.36,VALID,0.112112,VALID,24.1032,VALID,20,VALID,0,
2014-05-17, 01:28:05,VALID,1008.72,VALID,0,INVALID,110.284,VALID,0.112112,VALID,24.0819,VALID,20,VALID,0,
2014-05-17, 01:29:05,VALID,1008.67,VALID,0,INVALID,110.314,VALID,0,VALID,24.1032,VALID,20,VALID,0,
2014-05-17, 01:30:05,VALID,1008.65,VALID,0,INVALID,110.352,VALID,0.112112,VALID,24.0837,VALID,20,VALID,0,
2014-05-17, 01:31:05,VALID,1008.66,VALID,0,INVALID,110.345,VALID,0,VALID,24.0643,VALID,20,VALID,0,
2014-05-17, 01:32:05,VALID,1008.63,VALID,0,INVALID,110.307,VALID,0.112112,VALID,24.0429,VALID,20,VALID,0,
2014-05-17, 01:33:05,VALID,1008.63,VALID,0,INVALID,110.284,VALID,0.112112,VALID,24.0448,VALID,20,VALID,0,
2014-05-17, 01:34:05,VALID,1008.6,VALID,0,INVALID,110.246,VALID,0,VALID,24.0253,VALID,20,VALID,0,
2014-05-17, 01:35:05,VALID,1008.64,VALID,0,INVALID,110.185,VALID,0,VALID,24.0253,VALID,20,VALID,0,
2014-05-17, 01:36:05,VALID,1008.61,VALID,0,INVALID,110.177,VALID,0,VALID,24.0661,VALID,20,VALID,0,
2014-05-17, 01:37:05,VALID,1008.63,VALID,0,INVALID,110.154,VALID,0,VALID,24.0253,VALID,20,VALID,0,
2014-05-17, 01:38:05,VALID,1008.61,VALID,0,INVALID,110.177,VALID,0,VALID,24.0253,VALID,20,VALID,0,
2014-05-17, 01:39:05,VALID,1008.59,VALID,0,INVALID,110.139,VALID,0,VALID,24.0253,VALID,20,VALID,0,
2014-05-17, 01:40:05,VALID,1008.59,VALID,0,INVALID,110.093,VALID,0,VALID,24.0466,VALID,20,VALID,0,
2014-05-17, 01:41:05,VALID,1008.61,VALID,0,INVALID,110.116,VALID,0,VALID,24.0253,VALID,20,VALID,0,
2014-05-17, 01:42:05,VALID,1008.63,VALID,0,INVALID,110.085,VALID,0,VALID,24.0253,VALID,20,VALID,0,
2014-05-17, 01:43:05,VALID,1008.61,VALID,0,INVALID,110.04,VALID,0,VALID,24.0253,VALID,20,VALID,0,
2014-05-17, 01:44:05,VALID,1008.6,VALID,0,INVALID,110.047,VALID,0,VALID,24.0466,VALID,20,VALID,0,
2014-05-17, 01:45:05,VALID,1008.61,VALID,0,INVALID,109.971,VALID,0,VALID,24.0466,VALID,20,VALID,0,
2014-05-17, 01:46:05,VALID,1008.61,VALID,0,INVALID,109.971,VALID,0,VALID,24.0253,VALID,20,VALID,0,
2014-05-17, 01:47:05,VALID,1008.62,VALID,0,INVALID,109.948,VALID,0,VALID,24.0253,VALID,20,VALID,0,
2014-05-17, 01:48:05,VALID,1008.57,VALID,0,INVALID,109.94,VALID,0,VALID,24.0448,VALID,20,VALID,0,
2014-05-17, 01:49:05,VALID,1008.56,VALID,0,INVALID,109.933,VALID,0,VALID,24.0448,VALID,20,VALID,0,
2014-05-17, 01:50:05,VALID,1008.52,VALID,0,INVALID,109.91,VALID,0,VALID,24.0466,VALID,20,VALID,0,
2014-05-17, 01:51:05,VALID,1008.51,VALID,0,INVALID,109.91,VALID,0,VALID,24.0253,VALID,20,VALID,0,
2014-05-17, 01:52:05,VALID,1008.45,VALID,0,INVALID,109.887,VALID,0,VALID,24.0466,VALID,20,VALID,0,
2014-05-17, 01:53:05,VALID,1008.41,VALID,0,INVALID,109.879,VALID,0,VALID,24.0466,VALID,20,VALID,0,
2014-05-17, 01:54:05,VALID,1008.37,VALID,0,INVALID,109.864,VALID,0,VALID,24.0466,VALID,20,VALID,0,
2014-05-17, 01:55:05,VALID,1008.37,VALID,0,INVALID,109.826,VALID,0,VALID,24.0058,VALID,20,VALID,0,
2014-05-17, 01:56:05,VALID,1008.33,VALID,0,INVALID,109.834,VALID,0,VALID,24.0271,VALID,20,VALID,0,
2014-05-17, 01:57:05,VALID,1008.3,VALID,0,INVALID,109.811,VALID,0,VALID,24.0076,VALID,20,VALID,0,
2014-05-17, 01:58:05,VALID,1008.29,VALID,0,INVALID,109.818,VALID,0,VALID,24.0076,VALID,20,VALID,0,
2014-05-17, 01:59:05,VALID,1008.25,VALID,0,INVALID,109.78,VALID,0,VALID,23.9863,VALID,20,VALID,0,
2014-05-17, 02:00:05,VALID,1008.24,VALID,0,INVALID,109.796,VALID,0,VALID,23.9863,VALID,20,VALID,0,
2014-05-17, 02:01:05,VALID,1008.23,VALID,0,INVALID,109.811,VALID,0,VALID,23.9473,VALID,20,VALID,0,
2014-05-17, 02:02:05,VALID,1008.2,VALID,0,INVALID,109.803,VALID,0,VALID,23.9686,VALID,20,VALID,0,
2014-05-17, 02:03:05,VALID,1008.19,VALID,0,INVALID,109.796,VALID,0,VALID,23.9686,VALID,20,VALID,0,
2014-05-17, 02:04:05,VALID,1008.17,VALID,0,INVALID,109.773,VALID,0,VALID,23.9065,VALID,20,VALID,0,
2014-05-17, 02:05:05,VALID,1008.18,VALID,0,INVALID,109.796,VALID,0.112112,VALID,23.9065,VALID,20,VALID,0,
2014-05-17, 02:06:05,VALID,1008.16,VALID,0,INVALID,109.75,VALID,0.112112,VALID,23.8871,VALID,20,VALID,0,
2014-05-17, 02:07:05,VALID,1008.16,VALID,0,INVALID,109.78,VALID,0.112112,VALID,23.8871,VALID,20,VALID,0,
2014-05-17, 02:08:05,VALID,1008.17,VALID,0,INVALID,109.719,VALID,0,VALID,23.8676,VALID,20,VALID,0,
2014-05-17, 02:09:05,VALID,1008.18,VALID,0,INVALID,109.712,VALID,0.112112,VALID,23.8889,VALID,20,VALID,0,
2014-05-17, 02:10:05,VALID,1008.14,VALID,0,INVALID,109.689,VALID,0.112112,VALID,23.8889,VALID,20,VALID,0,
2014-05-17, 02:11:05,VALID,1008.12,VALID,0,INVALID,109.696,VALID,0.112112,VALID,23.8889,VALID,20,VALID,0,
2014-05-17, 02:12:05,VALID,1008.1,VALID,0,INVALID,109.666,VALID,0.112112,VALID,23.8871,VALID,20,VALID,0,
2014-05-17, 02:13:05,VALID,1008.11,VALID,0,INVALID,109.666,VALID,0,VALID,23.8676,VALID,20,VALID,0,
2014-05-17, 02:14:05,VALID,1008.09,VALID,0,INVALID,109.643,VALID,0.112112,VALID,23.8676,VALID,20,VALID,0,
2014-05-17, 02:15:05,VALID,1008.1,VALID,0,INVALID,109.628,VALID,0.112112,VALID,23.8889,VALID,20,VALID,0,
2014-05-17, 02:16:05,VALID,1008.04,VALID,0,INVALID,109.635,VALID,0.112112,VALID,23.8889,VALID,20,VALID,0,
2014-05-17, 02:17:05,VALID,1008.02,VALID,0,INVALID,109.613,VALID,0.112112,VALID,23.8889,VALID,20,VALID,0,
2014-05-17, 02:18:05,VALID,1008.01,VALID,0,INVALID,109.62,VALID,0.112112,VALID,23.8676,VALID,20,VALID,0,
2014-05-17, 02:19:05,VALID,1007.97,VALID,0,INVALID,109.582,VALID,0.112112,VALID,23.8481,VALID,20,VALID,0,
2014-05-17, 02:20:05,VALID,1007.97,VALID,0,INVALID,109.613,VALID,0.112112,VALID,23.8286,VALID,20,VALID,0,
2014-05-17, 02:21:05,VALID,1007.93,VALID,0,INVALID,109.613,VALID,0.112112,VALID,23.8286,VALID,20,VALID,0,
2014-05-17, 02:22:05,VALID,1007.96,VALID,0,INVALID,109.605,VALID,0.112112,VALID,23.8304,VALID,20,VALID,0,
2014-05-17, 02:23:05,VALID,1007.95,VALID,0,INVALID,109.605,VALID,0.112112,VALID,23.7896,VALID,20,VALID,0,
2014-05-17, 02:24:05,VALID,1007.94,VALID,0,INVALID,109.613,VALID,0.112112,VALID,23.7896,VALID,20,VALID,0,
2014-05-17, 02:25:05,VALID,1007.98,VALID,0,INVALID,109.613,VALID,0.112112,VALID,23.7896,VALID,20,VALID,0,
2014-05-17, 02:26:05,VALID,1008.01,VALID,0,INVALID,109.613,VALID,0.112112,VALID,23.7914,VALID,20,VALID,0,
2014-05-17, 02:27:05,VALID,1007.98,VALID,0,INVALID,109.62,VALID,0.112112,VALID,23.7507,VALID,20,VALID,0,
2014-05-17, 02:28:05,VALID,1008.02,VALID,0,INVALID,109.613,VALID,0.112112,VALID,23.772,VALID,20,VALID,0,
2014-05-17, 02:29:05,VALID,1008.05,VALID,0,INVALID,109.59,VALID,0.112112,VALID,23.7312,VALID,20,VALID,0,
2014-05-17, 02:30:05,VALID,1008.06,VALID,0,INVALID,109.605,VALID,0.112112,VALID,23.7312,VALID,20,VALID,0,
2014-05-17, 02:31:05,VALID,1008.04,VALID,0,INVALID,109.59,VALID,0.112112,VALID,23.733,VALID,20,VALID,0,
2014-05-17, 02:32:05,VALID,1008.07,VALID,0,INVALID,109.597,VALID,0.112112,VALID,23.7117,VALID,20,VALID,0,
2014-05-17, 02:33:05,VALID,1008.02,VALID,0,INVALID,109.574,VALID,0.112112,VALID,23.7135,VALID,20,VALID,0,
2014-05-17, 02:34:05,VALID,1008.05,VALID,0,INVALID,109.597,VALID,0.112112,VALID,23.6922,VALID,20,VALID,0,
2014-05-17, 02:35:05,VALID,1008.04,VALID,0,INVALID,109.567,VALID,0,VALID,23.694,VALID,20,VALID,0,
2014-05-17, 02:36:05,VALID,1008.07,VALID,0,INVALID,109.559,VALID,0.112112,VALID,23.6532,VALID,20,VALID,0,
2014-05-17, 02:37:05,VALID,1008.08,VALID,0,INVALID,109.567,VALID,0,VALID,23.6745,VALID,20,VALID,0,
2014-05-17, 02:38:05,VALID,1008.11,VALID,0,INVALID,109.536,VALID,0,VALID,23.655,VALID,20,VALID,0,
2014-05-17, 02:39:05,VALID,1008.12,VALID,0,INVALID,109.529,VALID,0.112112,VALID,23.6338,VALID,20,VALID,0,
2014-05-17, 02:40:05,VALID,1008.15,VALID,0,INVALID,109.529,VALID,0.112112,VALID,23.6143,VALID,20,VALID,0,
2014-05-17, 02:41:05,VALID,1008.17,VALID,0,INVALID,109.513,VALID,0.112112,VALID,23.6356,VALID,20,VALID,0,
2014-05-17, 02:42:05,VALID,1008.19,VALID,0,INVALID,109.529,VALID,0.112112,VALID,23.6143,VALID,20,VALID,0,
2014-05-17, 02:43:05,VALID,1008.21,VALID,0,INVALID,109.491,VALID,0.112112,VALID,23.6356,VALID,20,VALID,0,
2014-05-17, 02:44:05,VALID,1008.25,VALID,0,INVALID,109.483,VALID,0.112112,VALID,23.5948,VALID,20,VALID,0,
2014-05-17, 02:45:05,VALID,1008.27,VALID,0,INVALID,109.483,VALID,0,VALID,23.6161,VALID,20,VALID,0,
2014-05-17, 02:46:05,VALID,1008.31,VALID,0,INVALID,109.475,VALID,0.112112,VALID,23.6161,VALID,20,VALID,0,
2014-05-17, 02:47:05,VALID,1008.35,VALID,0,INVALID,109.498,VALID,0.112112,VALID,23.6161,VALID,20,VALID,0,
2014-05-17, 02:48:05,VALID,1008.37,VALID,0,INVALID,109.468,VALID,0.112112,VALID,23.5948,VALID,20,VALID,0,
2014-05-17, 02:49:05,VALID,1008.37,VALID,0,INVALID,109.498,VALID,0.112112,VALID,23.5753,VALID,20,VALID,0,
2014-05-17, 02:50:05,VALID,1008.35,VALID,0,INVALID,109.399,VALID,0.112112,VALID,23.5753,VALID,20,VALID,0,
2014-05-17, 02:51:05,VALID,1008.37,VALID,0,INVALID,109.407,VALID,0.112112,VALID,23.5948,VALID,20,VALID,0,
2014-05-17, 02:52:05,VALID,1008.4,VALID,0,INVALID,109.414,VALID,0,VALID,23.5948,VALID,20,VALID,0,
2014-05-17, 02:53:05,VALID,1008.37,VALID,0,INVALID,109.399,VALID,0.112112,VALID,23.6161,VALID,20,VALID,0,
2014-05-17, 02:54:05,VALID,1008.38,VALID,0,INVALID,109.407,VALID,0.112112,VALID,23.5948,VALID,20,VALID,0,
2014-05-17, 02:55:05,VALID,1008.4,VALID,0,INVALID,109.399,VALID,0.112112,VALID,23.6161,VALID,20,VALID,0,
2014-05-17, 02:56:05,VALID,1008.39,VALID,0,INVALID,109.391,VALID,0.112112,VALID,23.6143,VALID,20,VALID,0,
2014-05-17, 02:57:05,VALID,1008.45,VALID,0,INVALID,109.353,VALID,0.112112,VALID,23.6161,VALID,20,VALID,0,
2014-05-17, 02:58:05,VALID,1008.44,VALID,0,INVALID,109.407,VALID,0.112112,VALID,23.6161,VALID,20,VALID,0,
2014-05-17, 02:59:05,VALID,1008.45,VALID,0,INVALID,109.43,VALID,0,VALID,23.5753,VALID,20,VALID,0,
2014-05-17, 03:00:05,VALID,1008.47,VALID,0,INVALID,109.391,VALID,0.112112,VALID,23.5753,VALID,20,VALID,0,
2014-05-17, 03:01:05,VALID,1008.47,VALID,0,INVALID,109.391,VALID,0.112112,VALID,23.6161,VALID,20,VALID,0,
2014-05-17, 03:02:05,VALID,1008.45,VALID,0,INVALID,109.384,VALID,0.112112,VALID,23.5948,VALID,20,VALID,0,
2014-05-17, 03:03:05,VALID,1008.45,VALID,0,INVALID,109.422,VALID,0.112112,VALID,23.5948,VALID,20,VALID,0,
2014-05-17, 03:04:05,VALID,1008.47,VALID,0,INVALID,109.376,VALID,0,VALID,23.6179,VALID,20,VALID,0,
2014-05-17, 03:05:05,VALID,1008.5,VALID,0,INVALID,109.361,VALID,0,VALID,23.5984,VALID,20,VALID,0,
2014-05-17, 03:06:05,VALID,1008.5,VALID,0,INVALID,109.33,VALID,0,VALID,23.5771,VALID,20,VALID,0,
2014-05-17, 03:07:05,VALID,1008.53,VALID,0,INVALID,109.346,VALID,0,VALID,23.5984,VALID,20,VALID,0,
2014-05-17, 03:08:05,VALID,1008.55,VALID,0,INVALID,109.361,VALID,0,VALID,23.5984,VALID,20,VALID,0,
2014-05-17, 03:09:05,VALID,1008.57,VALID,0,INVALID,109.376,VALID,0,VALID,23.5576,VALID,20,VALID,0,
2014-05-17, 03:10:05,VALID,1008.59,VALID,0,INVALID,109.361,VALID,0,VALID,23.5576,VALID,20,VALID,0,
2014-05-17, 03:11:05,VALID,1008.58,VALID,0,INVALID,109.361,VALID,0,VALID,23.5771,VALID,20,VALID,0,
2014-05-17, 03:12:05,VALID,1008.58,VALID,0,INVALID,109.33,VALID,0,VALID,23.5771,VALID,20,VALID,0,
2014-05-17, 03:13:05,VALID,1008.57,VALID,0,INVALID,109.308,VALID,0,VALID,23.5771,VALID,20,VALID,0,
2014-05-17, 03:14:05,VALID,1008.57,VALID,0,INVALID,109.315,VALID,0,VALID,23.5984,VALID,20,VALID,0,
2014-05-17, 03:15:05,VALID,1008.56,VALID,0,INVALID,109.277,VALID,0,VALID,23.6179,VALID,20,VALID,0,
2014-05-17, 03:16:05,VALID,1008.54,VALID,0,INVALID,109.269,VALID,0,VALID,23.6179,VALID,20,VALID,0,
2014-05-17, 03:17:05,VALID,1008.57,VALID,0,INVALID,109.277,VALID,0,VALID,23.6179,VALID,20,VALID,0,
2014-05-17, 03:18:05,VALID,1008.57,VALID,0,INVALID,109.224,VALID,0,VALID,23.6179,VALID,20,VALID,0,
2014-05-17, 03:19:05,VALID,1008.57,VALID,0,INVALID,109.224,VALID,0,VALID,23.6161,VALID,20,VALID,0,
2014-05-17, 03:20:04,VALID,1008.57,VALID,0,INVALID,109.231,VALID,0,VALID,23.6161,VALID,20,VALID,0,
2014-05-17, 03:21:04,VALID,1008.58,VALID,0,INVALID,109.277,VALID,0,VALID,23.6179,VALID,20,VALID,0,
2014-05-17, 03:22:04,VALID,1008.57,VALID,0,INVALID,109.247,VALID,0,VALID,23.5966,VALID,20,VALID,0,
2014-05-17, 03:23:04,VALID,1008.59,VALID,0,INVALID,109.254,VALID,0,VALID,23.6179,VALID,20,VALID,0,
2014-05-17, 03:24:04,VALID,1008.6,VALID,0,INVALID,109.224,VALID,0,VALID,23.6373,VALID,20,VALID,0,
2014-05-17, 03:25:04,VALID,1008.6,VALID,0,INVALID,109.247,VALID,0,VALID,23.6161,VALID,20,VALID,0,
2014-05-17, 03:26:04,VALID,1008.58,VALID,0,INVALID,109.247,VALID,0,VALID,23.5966,VALID,20,VALID,0,
2014-05-17, 03:27:04,VALID,1008.57,VALID,0,INVALID,109.239,VALID,0,VALID,23.5966,VALID,20,VALID,0,
2014-05-17, 03:28:04,VALID,1008.6,VALID,0,INVALID,109.201,VALID,0,VALID,23.6373,VALID,20,VALID,0,
2014-05-17, 03:29:04,VALID,1008.59,VALID,0,INVALID,109.193,VALID,0,VALID,23.6161,VALID,20,VALID,0,
2014-05-17, 03:30:04,VALID,1008.61,VALID,0,INVALID,109.193,VALID,0,VALID,23.6373,VALID,20,VALID,0,
2014-05-17, 03:31:04,VALID,1008.6,VALID,0,INVALID,109.193,VALID,0,VALID,23.6356,VALID,20,VALID,0,
2014-05-17, 03:32:04,VALID,1008.59,VALID,0,INVALID,109.155,VALID,0,VALID,23.6356,VALID,20,VALID,0,
2014-05-17, 03:33:04,VALID,1008.59,VALID,0,INVALID,109.163,VALID,0,VALID,23.6356,VALID,20,VALID,0,
2014-05-17, 03:34:04,VALID,1008.58,VALID,0,INVALID,109.155,VALID,0,VALID,23.6356,VALID,20,VALID,0,
2014-05-17, 03:35:04,VALID,1008.59,VALID,0,INVALID,109.125,VALID,0,VALID,23.6568,VALID,20,VALID,0,
2014-05-17, 03:36:04,VALID,1008.58,VALID,0,INVALID,109.14,VALID,0,VALID,23.655,VALID,20,VALID,0,
2014-05-17, 03:37:04,VALID,1008.57,VALID,0,INVALID,109.117,VALID,0,VALID,23.6568,VALID,20,VALID,0,
2014-05-17, 03:38:04,VALID,1008.58,VALID,0,INVALID,109.117,VALID,0,VALID,23.655,VALID,20,VALID,0,
2014-05-17, 03:39:04,VALID,1008.56,VALID,0,INVALID,109.125,VALID,0,VALID,23.6763,VALID,20,VALID,0,
2014-05-17, 03:40:04,VALID,1008.58,VALID,0,INVALID,109.117,VALID,0,VALID,23.6763,VALID,20,VALID,0,
2014-05-17, 03:41:04,VALID,1008.53,VALID,0,INVALID,109.064,VALID,0,VALID,23.6958,VALID,20,VALID,0,
2014-05-17, 03:42:04,VALID,1008.57,VALID,0,INVALID,109.079,VALID,0,VALID,23.6958,VALID,20,VALID,0,
2014-05-17, 03:43:04,VALID,1008.54,VALID,0,INVALID,109.064,VALID,0,VALID,23.694,VALID,20,VALID,0,
2014-05-17, 03:44:04,VALID,1008.56,VALID,0,INVALID,109.056,VALID,0,VALID,23.7153,VALID,20,VALID,0,
2014-05-17, 03:45:04,VALID,1008.55,VALID,0,INVALID,109.056,VALID,0,VALID,23.7135,VALID,20,VALID,0,
2014-05-17, 03:46:04,VALID,1008.52,VALID,0,INVALID,109.086,VALID,0,VALID,23.694,VALID,20,VALID,0,
2014-05-17, 03:47:04,VALID,1008.5,VALID,0,INVALID,109.064,VALID,0,VALID,23.694,VALID,20,VALID,0,
2014-05-17, 03:48:04,VALID,1008.48,VALID,0,INVALID,109.048,VALID,0,VALID,23.7153,VALID,20,VALID,0,
2014-05-17, 03:49:04,VALID,1008.47,VALID,0,INVALID,109.079,VALID,0,VALID,23.7135,VALID,20,VALID,0,
2014-05-17, 03:50:04,VALID,1008.46,VALID,0,INVALID,109.041,VALID,0,VALID,23.7348,VALID,20,VALID,0,
2014-05-17, 03:51:04,VALID,1008.43,VALID,0,INVALID,109.064,VALID,0,VALID,23.7135,VALID,20,VALID,0,